Skip Page Navigation
NASA JPL Caltech
NASA Logo - Jet Propulsion Laboratory + View the NASA Portal
+ Center for Near-Earth Object Studies
JPL Home Earth Solar System Stars & Galaxies Technology
JPL Solar System Dynamics
BODIES ORBITS EPHEMERIDES TOOLS PHYSICAL DATA DISCOVERY FAQ SITE MAP
JPL Small-Body Database Browser
Search: [ help ]  
103267 (2000 AK27)
Classification: Main-belt Asteroid          SPK-ID: 2103267
Ephemeris | Orbit Diagram | Orbital Elements | Mission Design | Physical Parameters | Discovery Circumstances | Close-Approach Data ]

[ show orbit diagram ]
Orbital Elements at Epoch 2459200.5 (2020-Dec-17.0) TDB
Reference: JPL 21 (heliocentric ecliptic J2000)
 Element Value Uncertainty (1-sigma)   Units 
e .1721904906997207 5.9703e-08  
a 2.760020967752236 1.4855e-08 au
q 2.284771602973461 1.645e-07 au
i 6.060902111074043 6.2015e-06 deg
node 64.38826295842662 4.1882e-05 deg
peri 313.4785685284023 4.3705e-05 deg
M 271.8309074554892 1.5416e-05 deg
tp 2459610.686033729408
(2022-Jan-31.18603373)
7.3555e-05 TDB
period 1674.815605797911
4.59
1.3521e-05
3.702e-08
d
yr
n .2149490360334264 1.7353e-09 deg/d
Q 3.235270332531012 1.7412e-08 au
  Orbit Determination Parameters
   # obs. used (total)      709  
   data-arc span      7493 days (20.51 yr)  
   first obs. used      1999-12-15  
   last obs. used      2020-06-20  
   planetary ephem.      DE431  
   SB-pert. ephem.      SB431-N16  
   condition code      0  
   norm. resid. RMS      .55398  
   source      ORB  
   producer      Otto Matic  
   solution date      2021-Feb-23 21:24:45  

Additional Information
 Earth MOID = 1.29087 au 
 Jupiter MOID = 2.23541 au 
 T_jup = 3.312 
[ show covariance matrix ]

Ephemeris | Orbit Diagram | Orbital Elements | Mission Design | Physical Parameters | Discovery Circumstances | Close-Approach Data ]

Physical Parameter Table
Parameter Symbol Value Units Sigma Reference Notes
absolute magnitude H 15.1   n/a MPO338003  

103267 (2000 AK27)          Discovered 2000-Jan-03 by LINEAR at Socorro
Reference: 20051019/Numbers.arcLast Updated: 2005-10-26

[ show close-approach data ]
Ephemeris | Orbit Diagram | Orbital Elements | Mission Design | Physical Parameters | Discovery Circumstances | Close-Approach Data ]
ABOUT SSD CREDITS/AWARDS PRIVACY/COPYRIGHT GLOSSARY LINKS
FirstGov 2021-Mar-04 19:11 UT
(server date/time)  
NASA Home Page
Site Manager:   Ryan S. Park
Webmaster  Alan B. Chamberlin